DW1437 Weather Reports


time (UTC)temp
C
wind
direction
speed
KPH
gust
KPH
rain 1hr
cm
rain 24hr
cm
rain mn
cm
humidity
%
barometer
mb
20260906064401 13 123 0.0 0.0 0.00 0.03 0.03 93 1020.8
20260906060017 13 123 0.0 1.6 0.00 0.03 0.03 93 1020.6
20260906055026 13 123 0.0 0.0 0.00 0.03 0.03 92 1020.9
20260906054042 13 123 0.0 0.0 0.00 0.03 0.03 92 1021.0
20260906053017 13 123 0.0 0.0 0.00 0.03 0.03 92 1021.1
20260906052035 13 123 0.0 0.0 0.00 0.03 0.03 91 1021.4
20260906051031 13 123 0.0 0.0 0.00 0.03 0.03 91 1021.3
20260906044857 13 123 0.0 3.2 0.08 0.03 0.03 91 1021.6
20260906042728 13 83 0.0 0.0 0.00 0.00 0.00 90 1021.8
20260906041659 13 112 0.0 0.0 0.00 0.00 0.00 90 1021.9
20260906040630 13 154 0.0 0.0 0.00 0.00 0.00 90 1021.9
20260906035614 13 25 0.0 0.0 0.00 0.00 0.00 90 1022.1
20260906033416 12 234 0.0 0.0 0.00 0.00 0.00 90 1022.3
20260906032431 12 234 0.0 0.0 0.00 0.00 0.00 90 1022.4
20260906031419 12 234 0.0 0.0 0.00 0.00 0.00 90 1022.6
20260906030423 12 234 0.0 0.0 0.00 0.00 0.00 90 1022.7
20260906025411 12 234 0.0 0.0 0.00 0.00 0.00 91 1022.7
20260906024341 12 234 0.0 0.0 0.00 0.00 0.00 90 1022.7
20260906023348 12 239 0.0 0.0 0.00 0.00 0.00 90 1022.8
20260906022325 12 249 0.0 0.0 0.00 0.00 0.00 90 1022.9
20260906020202 12 249 0.0 0.0 0.00 0.00 0.00 90 1023.3
20260906015134 12 249 0.0 0.0 0.00 0.00 0.00 90 1023.4
20260906014122 12 249 0.0 0.0 0.00 0.00 0.00 90 1023.5
20260906013145 12 249 0.0 0.0 0.00 0.00 0.00 90 1023.5
20260906012130 12 249 0.0 0.0 0.00 0.00 0.00 90 1023.7
20260906010023 12 249 0.0 0.0 0.00 0.00 0.00 90 1023.9
20260906005004 12 249 0.0 0.0 0.00 0.00 0.00 89 1024.0
20260906001725 12 249 0.0 0.0 0.00 0.00 0.00 90 1024.2
20260906000739 12 249 0.0 0.0 0.00 0.00 0.00 90 1024.5
20260905234645 12 249 0.0 0.0 0.00 0.00 0.00 89 1024.7
20260905233638 12 249 0.0 0.0 0.00 0.00 0.00 89 1024.7
20260905232643 12 249 0.0 0.0 0.00 0.00 0.00 89 1024.7
20260905231703 12 249 0.0 1.6 0.00 0.00 0.00 90 1024.6
20260905230709 12 241 0.0 0.0 0.00 0.00 0.00 89 1024.5
20260905225714 12 241 0.0 0.0 0.00 0.00 0.00 89 1024.4
20260905224722 12 241 0.0 0.0 0.00 0.00 0.00 88 1024.4
20260905223728 12 241 0.0 0.0 0.00 0.00 0.00 88 1024.3
20260905222737 12 241 0.0 0.0 0.00 0.00 0.00 87 1024.4
20260905220632 12 241 0.0 0.0 0.00 0.00 0.00 87 1024.5
20260905215622 12 241 0.0 0.0 0.00 0.00 0.00 86 1024.6
20260905214626 12 241 0.0 0.0 0.00 0.00 0.00 86 1024.7
20260905213648 13 241 0.0 0.0 0.00 0.00 0.00 85 1024.8
20260905211456 13 241 0.0 0.0 0.00 0.00 0.00 84 1024.8
20260905210426 13 241 0.0 0.0 0.00 0.00 0.00 83 1024.7
20260905205438 13 241 0.0 0.0 0.00 0.00 0.00 83 1024.6
20260905204452 13 241 0.0 0.0 0.00 0.00 0.00 82 1024.5
20260905202332 14 241 0.0 0.0 0.00 0.00 0.00 81 1024.2
20260905201322 14 241 0.0 0.0 0.00 0.00 0.00 79 1024.0
20260905200312 15 241 0.0 0.0 0.00 0.00 0.00 78 1024.1
20260905195332 15 241 0.0 0.0 0.00 0.00 0.00 76 1024.2
20260905194316 15 241 0.0 0.0 0.00 0.00 0.00 76 1024.4
20260905193305 15 241 0.0 0.0 0.00 0.00 0.00 75 1024.2
20260905191147 16 241 0.0 0.0 0.00 0.00 0.00 73 1023.9
20260905190145 17 241 0.0 1.6 0.00 0.00 0.00 71 1024.0
20260905185144 17 241 0.0 0.0 0.00 0.00 0.00 69 1023.9
20260905184142 17 261 0.0 4.8 0.00 0.00 0.00 68 1023.9
20260905183132 18 271 0.0 0.0 0.00 0.00 0.00 67 1023.8
20260905182102 18 290 0.0 0.0 0.00 0.00 0.00 64 1023.9
20260905181034 20 292 0.0 0.0 0.00 0.00 0.00 61 1024.0
20260905180057 20 292 0.0 0.0 0.00 0.00 0.00 59 1023.8
20260905175101 21 292 0.0 0.0 0.00 0.00 0.00 59 1023.8
20260905172946 21 312 1.6 6.4 0.00 0.00 0.00 57 1023.6
20260905171913 21 296 0.0 1.6 0.00 0.00 0.00 57 1023.6
20260905170855 21 295 1.6 4.8 0.00 0.00 0.00 55 1023.4
20260905164738 21 281 1.6 9.7 0.00 0.00 0.00 57 1023.5
20260905163742 21 246 1.6 9.7 0.00 0.00 0.00 56 1023.5
20260905162730 21 283 1.6 9.7 0.00 0.00 0.00 55 1023.5
20260905161746 21 234 0.0 1.6 0.00 0.00 0.00 56 1023.5
20260905160804 21 196 0.0 11.3 0.00 0.00 0.00 55 1023.7
20260905155815 21 296 3.2 11.3 0.00 0.00 0.00 58 1023.9
20260905154833 21 315 1.6 9.7 0.00 0.00 0.00 59 1023.8
20260905153822 20 248 1.6 12.9 0.00 0.00 0.00 59 1023.7
20260905152837 20 217 3.2 12.9 0.00 0.00 0.00 58 1023.8
20260905151847 20 290 3.2 8.0 0.00 0.00 0.00 59 1023.8
20260905150856 20 292 3.2 8.0 0.00 0.00 0.00 58 1024.0
20260905145850 20 183 1.6 16.1 0.00 0.00 0.00 60 1024.0
20260905144820 20 254 4.8 16.1 0.00 0.00 0.00 59 1024.1
20260905143757 20 296 4.8 12.9 0.00 0.00 0.00 61 1024.1
20260905142743 20 247 3.2 12.9 0.00 0.00 0.00 61 1024.2
20260905140609 20 277 3.2 12.9 0.00 0.00 0.00 59 1024.2
20260905135551 20 302 1.6 9.7 0.00 0.00 0.00 60 1024.1
20260905134601 20 289 6.4 14.5 0.00 0.00 0.00 60 1024.2
20260905133541 20 302 6.4 14.5 0.00 0.00 0.00 61 1024.2
20260905131412 20 277 6.4 16.1 0.00 0.00 0.00 60 1024.1
20260905130434 20 305 4.8 14.5 0.00 0.00 0.00 62 1024.0
20260905125414 19 265 4.8 14.5 0.00 0.00 0.00 61 1023.9
20260905124432 19 306 6.4 17.7 0.00 0.00 0.00 59 1023.9
20260905123410 19 282 4.8 17.7 0.00 0.00 0.00 61 1023.7
20260905122408 19 296 3.2 17.7 0.00 0.00 0.00 62 1023.8
20260905121412 18 252 4.8 17.7 0.00 0.00 0.00 61 1023.7
20260905120431 18 238 4.8 16.1 0.00 0.00 0.00 62 1023.8
20260905115416 18 285 4.8 16.1 0.00 0.00 0.00 67 1023.8
20260905114420 17 294 4.8 14.5 0.00 0.00 0.00 67 1024.1
20260905111114 18 277 4.8 16.1 0.00 0.00 0.00 67 1024.1
20260905110137 18 257 6.4 16.1 0.00 0.00 0.00 66 1024.0
20260905104016 17 250 4.8 14.5 0.00 0.00 0.00 69 1024.0
20260905101917 17 279 8.0 17.7 0.00 0.00 0.00 69 1024.0
20260905100935 17 266 4.8 14.5 0.00 0.00 0.00 69 1024.0
20260905095918 17 244 4.8 14.5 0.00 0.00 0.00 71 1024.0
20260905094916 17 244 3.2 14.5 0.00 0.00 0.00 72 1023.9
20260905093905 16 322 3.2 14.5 0.00 0.00 0.00 72 1023.8
20260905092846 17 302 4.8 14.5 0.00 0.00 0.00 72 1023.8
20260905091904 16 289 3.2 11.3 0.00 0.00 0.00 73 1023.6
20260905090843 16 284 6.4 11.3 0.00 0.00 0.00 74 1023.5
20260905085828 16 294 3.2 11.3 0.00 0.00 0.00 76 1023.5
20260905084806 16 295 3.2 9.7 0.00 0.00 0.00 77 1023.4
20260905083817 15 267 3.2 12.9 0.00 0.00 0.00 79 1023.4
20260905082833 15 296 4.8 12.9 0.00 0.00 0.00 79 1023.4
20260905081831 15 220 1.6 9.7 0.00 0.00 0.00 83 1023.3
20260905080829 14 268 0.0 4.8 0.00 0.00 0.00 85 1023.2
20260905075817 13 237 1.6 4.8 0.00 0.00 0.00 86 1023.1
20260905074756 13 170 0.0 0.0 0.00 0.00 0.00 86 1022.9
20260905072607 13 250 1.6 4.8 0.00 0.00 0.00 87 1022.8
20260905071626 12 247 1.6 4.8 0.00 0.00 0.00 88 1022.7
20260905070606 12 238 0.0 4.8 0.00 0.00 0.00 88 1022.6